[[{"header":{"parameterUnit":"m.s-1","parameterCategory":1,"la1":30.2991,"la2":30.254,"lo1":-89.0895,"lo2":-89.0444,"dy":0.0017,"dx":0.0017,"nx":28,"ny":28,"refTime":"2023-11-01T21:00:00:Z","depth":0,"parameterNumber":2,"parameterNumberName":"U-component_of_WINDS"},"data":[0,0,0,0,0,0,0,0,0,0,0,0,0,0,0,0,0,0,0,0,0,0,0,0,0,0,0,0,0,0,0,0,0,0,0,0,0,0,0,0,0,0,0,0,0,0,0,0,0,0,0,0,0,0,0,0,0,0,-2.6033,-2.6034,0,-2.6136,-2.6137,-2.6138,-2.6064,-2.6061,-2.6057,-2.6054,-2.6163,-2.6169,-2.6175,0,0,0,0,0,0,0,0,0,0,0,0,0,-2.5773,-2.5779,-2.6032,-2.6034,-2.6035,-2.6136,-2.6137,-2.6138,-2.6064,-2.606,-2.6056,-2.6053,-2.6161,-2.6168,-2.6175,0,0,0,0,0,0,0,0,0,0,0,0,0,-2.5882,-2.578,-2.6032,-2.601,-2.6009,-2.6135,-2.6137,-2.6139,-2.6065,-2.606,-2.6055,-2.6051,-2.6159,-2.6168,-2.6176,-2.6331,0,0,-2.6204,-2.6208,0,0,0,0,0,0,0,0,-2.5876,-2.5892,-2.6012,-2.6012,-2.6011,-2.6082,-2.6086,-2.6203,-2.6067,-2.6044,-2.6054,-2.6048,-2.614,-2.615,-2.6181,-2.6336,-2.6341,-2.6205,-2.621,-2.6214,-2.6216,0,0,0,0,0,0,0,-2.5869,-2.5887,-2.6073,-2.6014,-2.6013,-2.5996,-2.6006,-2.6108,-2.6119,-2.6046,-2.604,-2.6054,-2.6139,-2.6172,-2.6183,-2.6342,-2.6204,-2.6212,-2.6218,-2.6221,-2.6631,-2.6637,0,0,0,0,0,0,-2.5863,-2.5881,-2.607,-2.6076,-2.593,-2.6005,-2.6016,-2.6064,-2.6117,-2.6121,-2.6058,-2.605,-2.6159,-2.6172,-2.6186,-2.6373,-2.6214,-2.6222,-2.6227,-2.6626,-2.6633,-2.6639,0,0,0,0,0,0,-2.5858,-2.5881,-2.6066,-2.5978,-2.6,-2.6014,-2.6069,-2.6069,-2.6102,-2.6127,-2.6128,-2.609,-2.6156,-2.6174,-2.6296,-2.6376,-2.6226,-2.6234,-2.6619,-2.6628,-2.6636,-2.6746,0,0,0,0,0,0,-2.5851,-2.5879,-2.5937,-2.5979,-2.6005,-2.6173,-2.6074,-2.6074,-2.6117,-2.6108,-2.6157,-2.616,-2.6154,-2.6283,-2.6305,-2.6385,-2.6241,-2.6612,-2.6623,-2.6633,-2.6736,-2.6757,-2.6776,0,0,0,0,0,-2.5842,-2.5965,-2.5941,-2.5964,-2.6078,-2.6178,-2.6193,-2.6181,-2.6124,-2.6184,-2.6199,-2.6159,-2.6362,-2.6296,-2.632,-2.6405,-2.6607,-2.662,-2.6632,-2.6727,-2.6753,-2.6776,0,0,0,0,0,0,-2.5933,-2.597,-2.5944,-2.6084,-2.6128,-2.6165,-2.624,-2.6209,-2.6272,-2.6261,-2.6244,-2.6256,-2.6385,-2.6406,-2.6331,-2.6558,-2.6476,-2.6494,-2.654,-2.6565,-2.6585,-2.6579,-2.6249,0,0,0,0,0,-2.5969,-2.6046,-2.6074,-2.6196,-2.6219,-2.6226,-2.6269,-2.6256,-2.6302,-2.6321,-2.6345,-2.6392,-2.6467,-2.6516,-2.6586,-2.6737,-2.6748,-2.6807,-2.6827,-2.6844,-2.686,-2.6944,-2.6972,-2.6679,-2.6679,-2.6679,0,0,-2.6045,-2.6075,-2.6125,-2.6215,-2.6248,-2.6329,-2.6242,-2.6332,-2.6393,-2.6334,-2.6452,-2.6471,-2.6522,-2.666,-2.6722,-2.6682,-2.6943,-2.6859,-2.6872,-2.688,-2.696,-2.6987,-2.7012,-2.6688,-2.6686,-2.6685,0,0,-2.6227,-2.6256,-2.6361,-2.6395,-2.6446,-2.6449,-2.6474,-2.6516,-2.6527,-2.6644,-2.6602,-2.6674,-2.6802,-2.6841,-2.6878,-2.7073,-2.704,-2.7096,-2.7203,-2.7285,-2.7308,-2.7328,-2.7401,-2.7427,-2.7112,-2.7112,-2.7113,0,-2.6316,-2.6436,-2.6419,-2.6512,-2.6554,-2.6503,-2.661,-2.6645,-2.6716,-2.6747,-2.67,-2.6861,-2.6891,-2.7039,-2.7086,-2.7116,-2.7147,-2.7093,-2.7306,-2.7326,-2.7345,-2.7414,-2.7441,-2.7119,-2.7118,-2.7118,-2.7117,0,-2.6544,-2.6629,-2.6707,-2.6777,-2.6827,-2.6927,-2.6926,-2.6979,-2.6961,-2.697,-2.7091,-2.7125,-2.7202,-2.7235,-2.7219,-2.7381,-2.7355,-2.7307,-2.7226,-2.738,-2.7445,-2.7471,-2.7129,-2.7127,-2.7125,-2.7123,0,0,-2.6789,-2.6847,-2.6877,-2.6908,-2.696,-2.7025,-2.7123,-2.7197,-2.7244,-2.7294,-2.7378,-2.7487,-2.7443,-2.7485,-2.7472,-2.7544,-2.77,-2.7487,-2.7488,-2.7529,-2.7883,-2.7922,-2.7952,-2.7676,-2.7681,-2.7685,-2.788,0,-2.6976,-2.7146,-2.7133,-2.7294,-2.7373,-2.7325,-2.7411,-2.7452,-2.7463,-2.7532,-2.7543,-2.7622,-2.7557,-2.7582,-2.765,-2.7666,-2.7771,-2.7651,-2.7756,-2.776,-2.7748,-2.7986,-2.8027,-2.821,-2.7905,-2.7909,-2.7912,0,-2.7217,-2.7275,-2.7445,-2.7485,-2.7518,-2.7595,-2.7663,-2.7728,-2.7775,-2.7777,-2.7823,-2.7799,-2.7899,-2.7812,-2.7951,-2.787,-2.7911,-2.7925,-2.7932,-2.7945,-2.7848,-2.8008,-2.8267,-2.8296,-2.7951,-2.7948,-2.7946,0,-2.7383,-2.7503,-2.7621,-2.7649,-2.7698,-2.7754,-2.7777,-2.7818,-2.7864,-2.7923,-2.7953,-2.8022,-2.8062,-2.8117,-2.8113,-2.8049,-2.8255,-2.8167,-2.8262,-2.8263,-2.8311,-2.8309,-2.8584,-2.8332,-2.8331,-2.8331,-2.833,0,-2.7595,-2.7701,-2.7696,-2.7769,-2.7887,-2.787,-2.7988,-2.8005,-2.8042,-2.8118,-2.8079,-2.8152,-2.814,-2.8213,-2.8209,-2.8327,-2.8343,-2.835,-2.8349,-2.8356,-2.8356,-2.8386,-2.8374,-2.8338,-2.8336,-2.8335,-2.8334,0,-2.7802,-2.7802,-2.7927,-2.7963,-2.7975,-2.8061,-2.8092,-2.8161,-2.8167,-2.8264,-2.8286,-2.8297,-2.838,-2.838,-2.8476,-2.8474,-2.8618,-2.86,-2.8603,-2.8601,-2.8698,-2.869,-2.9005,-2.9047,-2.8764,-2.8766,-2.8769,0,-2.7939,-2.802,-2.8064,-2.8112,-2.8139,-2.8216,-2.8262,-2.8249,-2.8299,-2.8358,-2.8421,-2.85,-2.8564,-2.87,-2.8717,-2.879,-2.8776,-2.8882,-2.8788,-2.8793,-2.8782,-2.8779,-2.8789,-2.8902,-2.8905,-2.8907,-2.8909,0,-2.8184,-2.818,-2.8248,-2.8317,-2.8373,-2.8426,-2.8475,-2.8517,-2.8509,-2.8567,-2.8652,-2.8701,-2.8798,-2.8879,-2.895,-2.8974,-2.8943,-2.8938,-2.8965,-2.8975,-2.8975,-2.898,-2.8657,-2.8932,-2.893,-2.8928,-2.8927,-2.8926,-2.8363,-2.8433,-2.8475,-2.8553,-2.8588,-2.8635,-2.8702,-2.8717,-2.8787,-2.8865,-2.8852,-2.8947,-2.8992,-2.9083,-2.9114,-2.9189,-2.9153,-2.919,-2.9201,-2.9211,-2.9224,-2.8959,-2.9202,-2.9201,-2.92,-2.92,-2.9199,0,-2.8608,-2.8633,-2.8704,-2.8774,-2.8835,-2.8796,-2.8849,-2.8903,-2.8988,-2.9031,-2.9094,-2.9192,-2.927,-2.9293,-2.9368,-2.9424,-2.9412,-2.9445,-2.9443,-2.945,-2.925,-2.9221,-2.9454,-2.9454,-2.9454,-2.9454,-2.9454,-2.9454,-2.8744,-2.8862,-2.8863,-2.8998,-2.9021,-2.9114,-2.9148,-2.9191,-2.9226,-2.9338,-2.9402,-2.9415,-2.9451,-2.9529,-2.9599,-2.9604,-2.9635,-2.9676,-2.9675,-2.9489,-2.9464,-2.9439,-2.9412,-2.9681,-2.9682,-2.9868,-2.987,-2.9871]},{"header":{"parameterUnit":"m.s-1","parameterCategory":1,"la1":30.2991,"la2":30.254,"lo1":-89.0895,"lo2":-89.0444,"dy":0.0017,"dx":0.0017,"nx":28,"ny":28,"refTime":"2023-11-01T21:00:00:Z","depth":0,"parameterNumber":3,"parameterNumberName":"V-component_of_WINDS"},"data":[0,0,0,0,0,0,0,0,0,0,0,0,0,0,0,0,0,0,0,0,0,0,0,0,0,0,0,0,0,0,0,0,0,0,0,0,0,0,0,0,0,0,0,0,0,0,0,0,0,0,0,0,0,0,0,0,0,0,-4.1018,-4.1019,0,-4.1059,-4.1059,-4.1059,-4.1004,-4.1002,-4.1,-4.0998,-4.1036,-4.1038,-4.1041,0,0,0,0,0,0,0,0,0,0,0,0,0,-4.0889,-4.0892,-4.1018,-4.1019,-4.1019,-4.1059,-4.1059,-4.106,-4.1004,-4.1002,-4.1,-4.0997,-4.1035,-4.1038,-4.1041,0,0,0,0,0,0,0,0,0,0,0,0,0,-4.0939,-4.0892,-4.1018,-4.0997,-4.0995,-4.1058,-4.1059,-4.106,-4.1005,-4.1002,-4.0999,-4.0996,-4.1034,-4.1038,-4.1042,-4.1127,0,0,-4.1055,-4.1057,0,0,0,0,0,0,0,0,-4.0936,-4.0943,-4.0999,-4.0998,-4.0997,-4.1023,-4.1027,-4.1082,-4.1006,-4.1001,-4.0998,-4.0995,-4.1034,-4.1038,-4.1052,-4.1129,-4.1131,-4.1055,-4.1058,-4.106,-4.1061,0,0,0,0,0,0,0,-4.0933,-4.0941,-4.1034,-4.1,-4.0998,-4.0983,-4.0987,-4.1037,-4.1033,-4.1001,-4.0997,-4.1003,-4.1032,-4.1048,-4.1052,-4.1131,-4.1055,-4.1059,-4.1062,-4.1063,-4.128,-4.1283,0,0,0,0,0,0,-4.0932,-4.0939,-4.1033,-4.1035,-4.0958,-4.0988,-4.0992,-4.1018,-4.1033,-4.1032,-4.1005,-4.1,-4.1042,-4.1047,-4.1053,-4.1154,-4.106,-4.1064,-4.1066,-4.1276,-4.128,-4.1284,0,0,0,0,0,0,-4.093,-4.0941,-4.1031,-4.0986,-4.0996,-4.0993,-4.1022,-4.102,-4.1035,-4.1036,-4.1034,-4.1022,-4.104,-4.1047,-4.1109,-4.1154,-4.1066,-4.1069,-4.1273,-4.1278,-4.1282,-4.1356,0,0,0,0,0,0,-4.0926,-4.0941,-4.0974,-4.0987,-4.0999,-4.1088,-4.1025,-4.1023,-4.1043,-4.1037,-4.1051,-4.1051,-4.1038,-4.1103,-4.1114,-4.1159,-4.1073,-4.1269,-4.1275,-4.1281,-4.135,-4.1363,-4.1374,0,0,0,0,0,-4.0922,-4.0993,-4.0976,-4.0988,-4.1041,-4.1091,-4.1097,-4.1083,-4.1047,-4.108,-4.108,-4.105,-4.1148,-4.111,-4.1121,-4.1168,-4.1266,-4.1273,-4.128,-4.1344,-4.1361,-4.1374,0,0,0,0,0,0,-4.0984,-4.0994,-4.0976,-4.1053,-4.1072,-4.1082,-4.1123,-4.11,-4.1128,-4.1121,-4.11,-4.1103,-4.117,-4.1175,-4.1133,-4.1251,-4.1201,-4.121,-4.1246,-4.1261,-4.1273,-4.1271,-4.1076,0,0,0,0,0,-4.1007,-4.1048,-4.1054,-4.1121,-4.1132,-4.1126,-4.1147,-4.1134,-4.1152,-4.1159,-4.1163,-4.1181,-4.1215,-4.1238,-4.127,-4.135,-4.1352,-4.1388,-4.14,-4.141,-4.1419,-4.1461,-4.1477,-4.1307,-4.1307,-4.1307,0,0,-4.1054,-4.1064,-4.1092,-4.1134,-4.1147,-4.1189,-4.1133,-4.1179,-4.121,-4.1165,-4.1225,-4.1229,-4.1246,-4.1318,-4.135,-4.1324,-4.1466,-4.1419,-4.1427,-4.1431,-4.147,-4.1486,-4.1501,-4.1312,-4.1311,-4.1311,0,0,-4.1161,-4.1174,-4.1232,-4.1246,-4.1266,-4.1262,-4.1276,-4.1289,-4.129,-4.135,-4.1317,-4.1352,-4.1412,-4.1426,-4.1441,-4.1553,-4.1527,-4.1564,-4.1628,-4.167,-4.1683,-4.1695,-4.1735,-4.1749,-4.1573,-4.1573,-4.1573,0,-4.1217,-4.128,-4.1264,-4.1313,-4.1332,-4.1295,-4.1353,-4.1367,-4.1396,-4.141,-4.1381,-4.1455,-4.1464,-4.1539,-4.1566,-4.1579,-4.1594,-4.1563,-4.1683,-4.1694,-4.1705,-4.1743,-4.1758,-4.1577,-4.1577,-4.1576,-4.1576,0,-4.1348,-4.1392,-4.1436,-4.1467,-4.1491,-4.1544,-4.1534,-4.156,-4.1544,-4.1543,-4.1603,-4.1613,-4.1646,-4.1662,-4.1647,-4.1734,-4.1718,-4.1686,-4.1635,-4.1726,-4.1761,-4.1775,-4.1584,-4.1582,-4.1581,-4.158,0,0,-4.1496,-4.1517,-4.1534,-4.1547,-4.1567,-4.16,-4.165,-4.1684,-4.1706,-4.1727,-4.1768,-4.182,-4.1791,-4.1808,-4.1794,-4.183,-4.1918,-4.1794,-4.1794,-4.1817,-4.2014,-4.2038,-4.2055,-4.19,-4.1903,-4.1905,-4.2013,0,-4.1604,-4.1693,-4.168,-4.1765,-4.1805,-4.177,-4.1814,-4.183,-4.183,-4.1862,-4.186,-4.1897,-4.1856,-4.1866,-4.1901,-4.19,-4.1958,-4.1892,-4.1938,-4.194,-4.1935,-4.2074,-4.2099,-4.22,-4.2027,-4.2029,-4.2031,0,-4.1742,-4.1769,-4.186,-4.1873,-4.1889,-4.1929,-4.1958,-4.199,-4.2007,-4.2004,-4.2023,-4.2002,-4.2051,-4.1999,-4.2066,-4.2022,-4.2039,-4.2041,-4.2045,-4.2049,-4.1991,-4.2082,-4.2232,-4.2248,-4.2052,-4.205,-4.2049,0,-4.1841,-4.19,-4.1962,-4.1974,-4.1991,-4.202,-4.2028,-4.2042,-4.2063,-4.2088,-4.2101,-4.2131,-4.2147,-4.217,-4.2157,-4.2121,-4.2227,-4.2173,-4.2224,-4.2225,-4.2249,-4.2248,-4.2405,-4.226,-4.226,-4.2259,-4.2259,0,-4.1963,-4.2019,-4.2007,-4.2045,-4.2107,-4.209,-4.2151,-4.2154,-4.2167,-4.2204,-4.2175,-4.221,-4.2191,-4.2224,-4.2214,-4.227,-4.2278,-4.2276,-4.2273,-4.2279,-4.2279,-4.229,-4.2283,-4.2263,-4.2262,-4.2262,-4.2261,0,-4.2085,-4.2079,-4.2144,-4.2154,-4.2158,-4.2203,-4.2212,-4.2247,-4.2243,-4.229,-4.23,-4.2295,-4.2333,-4.2322,-4.2362,-4.2355,-4.2427,-4.2415,-4.2422,-4.2419,-4.2471,-4.2467,-4.2641,-4.2663,-4.2504,-4.2506,-4.2507,0,-4.2163,-4.2206,-4.2222,-4.2245,-4.2256,-4.2294,-4.2315,-4.2299,-4.2322,-4.2345,-4.2376,-4.2412,-4.2439,-4.25,-4.2499,-4.2529,-4.2517,-4.2577,-4.2522,-4.2527,-4.2518,-4.2516,-4.252,-4.2588,-4.2589,-4.2591,-4.2592,0,-4.2303,-4.2298,-4.2331,-4.2363,-4.2389,-4.2413,-4.2434,-4.2454,-4.244,-4.2467,-4.2506,-4.2527,-4.2569,-4.2604,-4.2631,-4.2637,-4.2613,-4.2609,-4.2623,-4.263,-4.2633,-4.2632,-4.2452,-4.2606,-4.2604,-4.2603,-4.2602,-4.2602,-4.2405,-4.2442,-4.2459,-4.2496,-4.251,-4.2531,-4.2564,-4.2565,-4.2598,-4.2631,-4.2619,-4.2664,-4.2678,-4.2713,-4.2723,-4.2756,-4.2734,-4.2753,-4.2758,-4.2763,-4.277,-4.2627,-4.2761,-4.2761,-4.276,-4.276,-4.276,0,-4.2544,-4.2553,-4.2588,-4.2619,-4.2648,-4.2622,-4.2644,-4.267,-4.271,-4.2726,-4.2754,-4.2798,-4.2831,-4.2833,-4.2864,-4.289,-4.2879,-4.2899,-4.2897,-4.2899,-4.2788,-4.2774,-4.2907,-4.2907,-4.2907,-4.2907,-4.2907,-4.2907,-4.262,-4.268,-4.2677,-4.2744,-4.2751,-4.2796,-4.281,-4.2828,-4.2841,-4.2892,-4.2921,-4.2922,-4.2932,-4.2963,-4.2993,-4.2992,-4.3005,-4.3029,-4.3024,-4.2921,-4.2907,-4.2893,-4.2879,-4.3032,-4.3032,-4.3132,-4.3133,-4.3133]}]]